GFSNGP_sfc_30mbdewp_177.txt.gz
Dewpoint
25 24 21 24 24 24 21 22 23 20 22 23 25 30 31 32 34 34 39 41 40 39 39 39 39 39 39 39 38 36 36 35 34 33 32 31 30 29 29 29 30 30 28 28
16 12 20 22 22 19 16 15 17 22 25 26 25 26 32 34 36 36 36 40 42 40 40 39 38 38 38 35 34 33 33 33 33 31 31 29 29 29 29 30 30 29 27 26
9 8 14 15 7 7 12 15 16 15 17 31 26 24 28 32 35 37 36 35 41 41 41 40 38 37 36 34 33 32 32 32 32 31 30 29 30 30 30 30 29 27 26 26
11 13 9 7 14 17 17 19 29 32 34 35 34 33 35 37 38 40 40 36 40 41 42 40 38 37 35 33 32 32 32 32 32 31 31 31 31 31 31 30 28 26 25 25
15 12 12 11 21 27 26 25 32 31 32 34 36 35 34 38 40 41 41 39 40 42 42 40 37 35 34 32 31 31 31 31 32 32 32 32 31 31 30 29 28 26 25 25
17 13 10 21 29 31 29 21 27 31 32 33 36 30 34 38 39 40 41 39 39 41 40 38 36 34 33 32 31 31 31 31 31 32 32 32 31 30 30 28 26 25 23 25
14 13 16 28 31 31 15 21 30 31 33 34 35 36 38 39 38 40 39 39 40 40 38 37 34 34 33 32 31 32 32 32 32 32 32 32 31 30 28 27 25 23 21 23
16 14 13 27 27 21 27 33 33 30 34 36 37 38 38 38 37 37 39 38 38 37 37 35 34 33 32 32 32 33 33 32 32 33 32 31 29 28 27 26 24 22 20 22
11 10 18 30 26 27 31 32 26 27 34 34 34 37 37 37 36 36 38 37 37 35 34 34 33 33 32 32 32 32 32 32 32 32 31 30 28 27 26 26 24 22 19 19
21 18 20 21 21 22 28 23 23 26 35 38 38 37 37 36 36 36 37 36 35 35 34 33 33 32 32 31 31 31 31 30 30 29 29 29 29 28 26 26 25 24 23 21
13 16 18 17 19 23 22 23 25 31 36 36 37 36 34 35 36 36 36 35 35 35 34 32 32 31 30 30 30 30 29 29 29 29 28 28 28 28 27 27 26 25 23 22
12 15 16 16 22 23 23 22 27 35 36 37 35 33 34 34 35 35 34 34 34 34 33 32 32 31 30 30 30 29 28 28 28 28 28 28 27 26 29 28 28 28 24 23
18 18 21 21 23 22 21 27 32 36 35 36 34 35 34 33 33 34 34 33 33 33 33 32 31 30 30 30 30 29 27 27 27 27 27 26 26 25 23 26 28 25 25 24
21 22 22 22 20 21 26 32 36 35 35 38 35 36 33 31 31 31 32 32 32 32 32 32 31 30 31 30 30 30 28 28 27 27 27 27 26 26 26 24 24 25 26 25
23 24 22 22 22 25 33 35 34 35 35 37 36 35 33 31 31 31 32 32 31 31 31 31 30 30 32 31 30 29 28 28 28 27 27 27 27 26 26 25 25 25 26 27
23 23 24 26 31 36 36 34 34 34 36 37 37 37 33 33 31 31 31 30 30 29 29 30 29 30 31 30 29 28 28 27 27 26 26 26 25 24 23 23 24 24 25 25
29 29 30 33 35 34 33 33 32 31 31 32 33 34 35 32 31 30 30 32 29 29 29 29 29 30 29 28 27 27 26 25 25 25 25 24 24 23 22 22 22 23 22 22
32 33 34 33 34 33 32 31 31 31 31 31 32 32 31 31 31 31 32 32 32 31 30 29 29 28 28 27 27 26 25 25 25 24 25 24 24 23 22 22 21 20 19 21
33 32 31 30 31 30 29 29 30 31 31 32 32 31 31 30 30 29 31 31 32 31 30 30 28 27 27 27 27 26 25 25 25 25 25 24 24 23 22 22 21 20 19 19
30 30 30 30 30 29 29 29 30 31 31 32 32 31 30 30 30 29 30 28 28 29 29 29 29 28 28 27 27 26 26 26 26 25 25 24 24 23 23 22 21 20 19 19
29 29 29 29 28 29 29 30 30 29 30 31 30 29 29 29 29 29 29 28 27 29 28 29 29 29 29 28 27 27 27 26 26 26 25 25 26 24 23 23 22 21 20 20
29 28 28 27 27 27 28 29 29 29 29 29 29 29 28 27 27 26 27 27 28 29 29 29 29 29 29 28 27 26 26 25 25 25 26 25 24 24 23 23 22 22 21 20
28 28 27 27 27 27 28 28 28 28 27 27 27 27 26 26 27 25 24 28 29 29 29 29 29 30 29 28 27 26 26 26 26 25 25 25 25 25 24 23 23 22 21 20
27 27 28 28 28 27 26 27 27 26 26 27 26 26 26 25 26 27 28 28 28 28 29 29 29 29 28 27 27 26 25 25 24 24 24 24 24 24 23 23 22 22 21 21
27 27 27 27 27 27 27 27 25 25 24 24 25 25 25 26 25 25 26 26 27 27 27 28 28 28 27 26 26 25 24 24 23 23 23 23 23 23 22 22 22 22 21 20
27 28 28 27 26 27 28 28 25 25 24 23 24 25 25 26 25 25 25 26 26 26 26 26 26 26 25 25 24 24 23 23 23 22 22 22 22 21 21 21 20 21 20 20
28 28 26 26 26 27 29 27 25 24 24 24 23 25 25 25 25 24 25 25 25 25 25 25 25 25 25 23 22 22 21 21 21 21 20 20 20 20 20 20 20 20 19 19

GFSNGP_sfc_30mbdewp_180.txt.gz
Dewpoint
24 22 24 25 22 15 20 23 21 18 17 16 18 23 26 27 27 30 33 35 40 41 41 41 41 40 40 40 41 41 40 39 38 37 36 35 34 33 31 30 30 30 29 29
12 14 17 13 12 18 21 18 18 18 15 20 33 33 32 31 29 32 35 38 38 40 40 40 40 39 40 39 38 38 37 36 36 36 35 34 32 31 30 30 30 30 29 28
4 7 12 9 10 11 10 14 13 12 18 34 33 34 35 34 35 38 39 40 40 39 40 40 39 39 38 37 36 37 35 35 35 34 33 32 31 29 29 29 30 29 29 28
10 10 5 3 12 18 23 24 29 28 28 31 32 33 36 37 38 38 38 40 39 39 41 41 39 38 36 35 35 34 34 33 33 33 31 30 30 29 29 29 29 28 28 28
11 13 12 13 26 27 26 24 32 29 28 28 31 33 34 37 38 38 39 40 40 40 42 42 39 37 35 34 33 33 33 32 31 31 30 30 29 29 30 29 29 28 28 28
16 12 5 18 23 25 26 21 29 31 28 27 29 27 30 38 38 39 38 40 40 40 41 40 39 36 34 33 32 32 32 32 31 30 30 29 30 30 30 29 28 27 27 28
14 12 12 22 22 20 19 20 27 31 31 28 26 33 36 37 38 39 38 38 40 39 38 37 36 35 34 33 32 32 32 31 31 31 30 30 31 31 29 28 27 26 26 27
14 12 9 24 20 10 14 18 24 31 31 24 29 35 35 36 37 38 37 37 37 39 37 35 34 34 33 32 32 32 31 31 32 32 32 32 31 29 28 27 25 24 24 25
15 8 18 27 20 23 27 28 25 28 23 25 33 36 37 38 37 37 37 37 37 36 35 34 33 33 32 30 32 31 31 31 32 33 32 31 30 28 27 26 24 23 23 23
17 10 16 20 21 22 29 25 27 22 23 27 35 37 37 36 35 35 37 37 36 35 33 33 33 32 31 31 31 31 31 32 32 31 30 30 30 29 27 26 24 24 23 22
17 16 17 17 17 19 19 24 23 22 23 34 38 37 34 34 35 35 35 35 36 35 34 33 32 31 31 31 31 31 31 31 31 30 29 29 29 28 28 28 27 25 24 22
11 11 13 14 17 21 21 22 23 22 28 35 37 35 34 33 33 34 33 34 34 34 34 32 31 30 30 30 31 31 29 29 29 29 29 28 28 27 30 29 30 29 27 25
17 17 17 18 20 21 22 23 22 24 33 36 37 35 35 32 32 32 32 32 32 33 33 32 31 30 30 31 30 30 29 29 28 28 28 27 27 26 24 28 29 28 27 26
23 22 22 22 21 22 23 23 23 31 36 38 36 36 34 31 31 31 31 31 32 32 32 31 30 30 31 30 30 29 28 28 28 28 28 27 26 25 25 24 23 24 27 27
28 28 24 23 23 22 23 25 35 37 37 36 36 35 33 31 30 30 31 31 31 31 31 31 30 30 31 30 29 28 28 28 28 28 27 27 27 26 26 25 24 24 25 26
30 25 24 24 24 26 34 34 33 32 32 33 34 34 35 32 31 30 30 30 30 30 30 30 30 30 31 30 29 29 28 28 27 27 26 26 26 25 25 25 25 24 24 24
26 23 29 31 31 35 34 32 32 31 31 31 31 32 33 32 30 30 31 30 30 30 29 30 29 30 30 30 29 28 27 27 26 26 26 25 25 24 25 25 24 24 24 25
32 33 33 33 33 33 31 31 31 31 31 32 32 31 30 29 29 29 30 31 30 30 30 30 29 29 29 29 28 27 26 25 25 25 24 24 23 23 23 23 23 22 21 23
31 31 31 31 31 30 29 30 30 31 31 31 31 30 30 30 29 29 31 32 32 31 30 30 29 28 27 28 27 26 25 25 25 25 24 23 23 22 22 21 21 20 20 20
30 30 30 29 29 29 29 29 30 30 30 31 31 30 29 29 29 29 29 28 28 29 29 29 28 28 28 27 26 26 25 24 24 24 23 23 22 22 21 21 19 18 19 19
28 28 28 28 28 28 28 29 29 29 29 29 29 28 28 27 27 28 28 28 28 29 29 29 29 28 28 28 27 26 25 25 25 24 23 23 22 22 21 20 20 19 19 19
28 27 27 27 27 27 28 28 28 28 27 27 27 27 27 26 26 26 27 27 28 29 29 29 29 28 28 28 27 26 26 25 25 25 25 24 23 22 22 22 21 21 20 19
27 27 27 27 27 27 27 27 27 27 26 25 25 25 26 26 26 25 24 27 29 29 29 29 28 28 27 26 26 25 24 24 24 24 24 23 23 22 22 22 22 21 21 20
27 28 27 28 28 27 25 26 26 26 25 25 25 25 25 25 25 26 26 27 28 28 28 28 28 28 28 27 26 25 25 24 24 24 24 24 23 23 23 22 22 21 21 20
27 27 27 27 26 26 27 26 25 24 23 24 24 25 25 25 24 24 25 26 27 27 27 27 28 27 27 26 25 24 23 23 22 22 22 22 22 22 21 21 21 21 20 20
27 28 28 27 26 27 28 28 25 25 24 23 24 25 25 25 25 25 25 26 25 25 25 26 26 25 24 23 22 22 22 21 21 21 21 20 20 19 20 19 19 19 18 18
27 28 28 26 26 27 28 28 25 24 24 23 23 24 24 24 24 24 24 24 24 24 24 24 23 23 22 21 20 20 19 19 18 18 18 19 20 19 18 18 18 18 18 18

GFSNGP_sfc_30mbdewp_183.txt.gz
Dewpoint
22 21 20 20 21 17 12 16 14 11 12 16 19 19 22 33 33 34 36 37 37 40 40 40 43 43 42 41 41 41 40 40 39 40 39 37 36 36 36 34 34 32 31 31
19 19 16 11 9 9 8 7 10 15 17 18 22 31 30 31 31 33 37 37 38 40 40 39 41 42 41 41 40 40 39 37 37 36 35 35 34 34 34 33 32 31 30 30
14 8 7 2 1 3 5 8 10 11 15 28 27 26 28 31 32 34 37 37 37 39 40 40 40 41 41 40 39 38 36 36 35 35 35 34 34 33 33 32 32 30 30 30
13 7 -0 -1 13 21 24 22 26 29 30 29 28 27 25 30 34 37 37 37 38 39 40 40 42 40 40 39 39 37 36 35 35 35 34 34 33 33 32 31 31 30 30 30
8 8 6 7 16 20 18 15 24 27 27 27 28 27 22 28 33 35 36 38 39 39 40 41 41 40 38 38 38 37 36 35 34 34 33 33 32 31 31 31 30 30 30 30
15 10 3 4 24 23 23 13 23 18 16 21 24 24 20 25 33 36 38 39 39 39 40 40 39 38 37 36 36 36 35 35 34 34 33 32 31 30 31 31 30 30 30 30
13 11 10 12 17 22 8 3 16 17 19 22 25 26 24 29 35 37 38 38 39 39 38 38 38 37 36 35 35 35 35 34 34 33 32 31 31 31 30 30 30 29 29 29
15 12 8 15 22 15 7 16 19 20 25 25 30 25 28 35 35 38 37 38 38 37 36 36 37 36 35 34 33 33 33 33 33 32 31 31 31 30 30 29 28 28 27 27
14 11 17 25 18 17 21 22 21 24 26 27 25 25 33 35 38 35 36 37 38 36 35 33 35 34 33 32 32 32 32 32 32 32 32 32 30 29 29 29 28 27 26 26
15 9 15 17 19 20 21 19 19 21 23 24 22 25 35 36 36 34 36 36 37 36 34 34 33 33 33 32 32 32 32 32 32 32 31 31 30 29 28 28 27 26 25 25
14 15 15 16 18 18 18 20 21 23 22 22 23 31 36 37 35 33 34 34 35 35 34 33 32 32 32 32 32 32 32 32 31 31 31 30 30 29 29 29 28 27 26 26
13 12 13 12 14 17 19 19 21 21 22 23 23 32 37 36 33 32 32 32 32 33 34 32 31 31 31 32 32 32 31 31 31 30 30 30 29 28 31 31 31 30 29 27
17 17 18 19 19 19 20 21 22 23 24 24 29 37 37 36 32 31 32 32 32 33 33 32 31 30 31 31 32 31 30 30 30 30 29 28 28 28 27 29 30 29 28 28
20 21 23 24 23 23 24 24 24 24 29 37 38 38 36 32 31 31 31 32 32 32 32 31 30 30 31 31 31 30 30 29 29 29 29 29 29 29 28 26 25 25 27 27
28 28 31 31 30 29 27 24 23 30 35 33 35 35 35 32 31 31 31 31 32 32 31 31 30 30 31 31 30 29 29 29 29 29 29 29 28 28 28 27 26 25 26 27
30 33 32 27 25 25 24 29 32 33 32 32 32 32 33 34 31 31 31 31 31 30 30 30 29 30 31 31 30 29 29 29 29 29 28 28 28 27 26 26 25 25 25 25
29 25 28 27 28 30 33 32 31 31 32 31 32 32 32 32 30 31 32 30 31 30 30 30 29 30 31 30 30 29 28 28 28 28 28 27 27 26 26 26 25 25 25 26
33 33 33 33 33 32 31 31 31 31 30 31 31 31 30 30 29 29 31 31 31 31 30 30 29 30 30 30 29 28 27 27 27 27 26 26 26 26 26 26 26 25 25 26
31 30 30 30 30 30 30 29 30 30 30 31 30 29 29 29 29 30 31 32 31 31 30 29 29 29 29 29 28 27 27 26 26 25 25 25 25 25 25 25 25 25 24 24
29 30 29 29 29 29 28 29 30 29 30 30 30 29 28 28 29 29 29 28 28 28 29 29 29 29 28 27 27 26 26 26 25 25 25 24 25 24 24 23 23 24 25 25
28 28 27 27 28 28 28 29 28 27 28 28 28 27 27 27 27 28 28 28 28 29 29 29 29 28 28 28 28 27 27 26 26 25 25 25 24 24 24 24 24 24 24 24
27 27 27 27 27 27 28 28 28 27 26 26 26 26 26 26 27 27 28 27 29 29 29 29 29 28 28 28 28 28 27 26 26 26 26 25 24 24 24 24 24 24 24 23
28 27 27 27 26 26 26 26 26 26 25 25 25 26 26 26 26 25 25 28 30 30 30 30 28 27 28 29 28 28 27 27 27 26 26 26 26 26 25 24 24 24 23 23
27 27 27 28 28 27 25 26 25 25 24 25 25 25 25 25 26 26 27 28 29 29 29 29 28 28 28 28 28 27 27 27 26 26 26 26 26 26 26 25 25 25 24 23
26 27 27 27 26 26 27 26 25 24 24 24 25 25 25 25 25 26 27 27 28 28 28 28 28 28 28 27 26 26 25 25 25 25 25 25 25 24 25 24 24 24 23 23
27 27 28 27 26 27 28 28 25 25 24 24 24 25 26 26 26 26 26 26 27 27 27 27 26 26 25 25 24 24 24 24 23 23 23 23 23 22 22 22 23 23 23 23
27 28 28 27 26 27 28 27 26 24 24 24 24 25 25 26 25 25 25 25 25 25 25 25 24 24 23 23 23 22 22 21 22 22 23 22 22 22 22 22 22 22 21 21

GFSNGP_sfc_30mbdewp_189.txt.gz
Dewpoint
17 14 12 11 12 12 18 21 16 15 12 12 8 4 2 7 14 16 18 18 18 22 22 27 32 34 35 39 43 45 45 43 40 40 40 40 40 40 39 39 38 37 37 36
21 17 14 11 10 10 10 10 12 9 8 5 2 5 11 15 15 14 15 18 20 20 22 28 34 36 38 41 42 44 41 40 40 39 39 39 39 39 39 38 38 37 36 35
11 8 8 10 11 12 11 9 8 5 3 -0 5 8 14 13 13 16 24 24 19 22 31 36 38 40 40 41 41 43 41 38 38 38 38 38 38 38 36 35 35 35 34 35
14 10 8 6 8 8 7 4 -0 -2 1 3 5 13 13 9 12 21 22 17 22 32 37 38 38 39 40 41 40 42 40 37 37 37 35 34 33 32 31 32 32 32 32 32
15 11 8 7 6 4 4 3 4 5 4 6 10 6 7 11 15 17 19 21 32 36 38 38 39 39 40 41 40 41 39 37 35 34 32 31 31 31 31 32 31 31 31 31
15 10 4 0 5 8 9 3 2 5 7 4 5 6 10 16 21 23 22 26 35 39 38 38 39 40 41 40 40 39 40 37 36 35 33 32 31 31 31 32 31 31 31 32
15 10 6 6 4 13 10 3 8 10 5 5 8 12 18 21 23 20 20 30 37 36 36 38 38 37 36 37 37 38 40 38 36 35 33 33 32 31 31 31 31 31 31 31
16 12 8 9 8 5 7 9 8 8 8 11 12 16 19 20 19 17 18 31 37 37 37 37 38 36 34 34 36 37 38 36 35 34 32 33 32 31 32 31 31 31 31 31
10 11 10 12 10 9 12 15 13 11 12 13 12 14 16 18 19 18 20 34 32 35 35 36 36 35 33 34 33 35 35 34 33 32 32 32 31 31 31 31 31 31 31 30
9 9 8 8 9 8 8 8 9 10 10 12 13 14 15 18 19 18 26 34 33 33 33 34 34 32 32 32 32 33 32 31 31 31 31 31 32 32 31 31 31 31 30 30
10 11 11 10 9 9 9 10 12 13 13 14 15 16 17 18 19 25 35 34 33 34 33 33 33 33 32 31 32 32 31 31 31 31 31 31 31 31 32 33 33 32 32 31
10 11 11 11 12 15 17 16 17 17 18 19 19 19 19 20 25 36 37 33 33 33 33 32 32 32 32 33 32 32 31 31 31 31 31 31 31 31 33 32 33 34 33 32
10 13 14 16 18 19 19 19 19 21 23 22 21 21 22 27 34 39 34 33 33 33 33 32 31 31 32 33 33 32 31 31 31 31 31 31 31 30 28 30 32 33 33 33
16 19 20 22 25 26 26 24 24 25 25 24 24 27 31 36 37 35 33 33 33 33 33 32 31 30 31 32 32 32 32 32 32 31 31 32 31 31 30 29 28 28 31 31
25 26 27 27 26 25 25 25 26 27 25 24 35 36 34 33 35 38 35 34 34 34 32 32 31 31 33 33 33 32 31 31 31 31 32 32 32 33 31 31 29 28 29 29
27 26 26 27 28 26 26 23 22 24 32 32 33 34 35 34 34 34 35 35 34 33 33 32 32 31 32 32 31 31 30 31 31 31 32 32 32 31 31 31 29 28 28 27
29 27 27 27 28 28 30 30 31 32 32 32 32 32 33 33 34 34 34 34 33 32 32 32 30 31 32 33 33 31 30 30 30 29 30 31 31 30 31 30 29 29 29 29
33 33 32 31 32 31 31 32 32 32 31 32 32 31 31 31 31 32 32 33 32 32 31 31 30 31 31 32 32 31 30 30 30 29 30 30 30 30 30 29 29 28 28 28
29 30 29 31 32 31 31 31 31 31 31 31 31 30 30 30 30 31 32 32 32 32 30 31 30 31 30 30 31 31 29 29 28 29 29 30 31 29 30 29 29 28 27 27
30 30 31 30 30 30 29 30 31 30 30 31 31 30 30 30 30 31 31 29 29 30 31 31 32 31 30 30 31 31 31 29 28 29 30 30 30 30 29 29 28 28 28 28
28 29 29 29 29 29 29 30 30 29 29 29 29 29 29 30 30 31 31 30 30 30 30 30 30 30 29 29 29 31 31 30 29 29 29 28 28 28 28 29 29 29 29 28
28 29 29 29 29 28 29 29 29 28 28 29 29 29 30 29 31 30 30 30 30 31 32 30 29 29 29 31 31 31 31 31 30 30 29 29 29 28 28 28 28 29 29 29
29 29 29 29 28 28 28 28 29 28 27 27 27 28 29 29 29 28 28 31 32 32 32 31 29 31 32 32 31 31 30 30 30 30 30 29 29 29 29 28 28 29 28 28
29 29 29 30 30 28 26 27 27 26 27 28 28 28 28 28 29 29 31 30 31 31 31 30 30 31 31 31 31 31 30 30 30 30 29 29 29 29 28 28 28 28 27 27
28 29 29 28 26 26 25 26 26 24 23 23 26 28 28 28 29 30 31 31 30 29 30 30 30 30 30 30 30 30 29 29 29 29 28 28 28 28 28 28 28 28 27 26
27 26 27 27 27 24 25 25 25 24 23 26 28 30 29 30 30 30 31 31 30 30 30 30 30 30 29 29 28 27 27 27 27 27 27 27 27 27 27 27 27 26 26 26
28 28 27 26 26 26 26 26 26 25 26 27 27 28 28 28 30 30 30 29 29 29 29 29 29 27 26 26 25 25 25 25 26 26 26 26 26 26 25 25 25 24 24 24